Location: Владивосток
(43.1151°N, 131.8856°E)
Time: 22:10:12
(UTC+10:00)

DX 1 - Pass Details

Date: 01 July 2022
Orbit: 617 x 629 km, 98.4° (Epoch: 11 August)

Event Time Altitude Azimuth Distance (km) Brightness Sun altitude
Rises 22:53:46 0° 7° (N) 2,930 ? -16.1°
Reaches altitude 10° 22:56:02 10° 2° (N) 2,016 ? -16.4°
Maximum altitude 23:00:14 47° 289° (WNW) 838 ? -16.8°
Drops below altitude 10° 23:04:24 10° 216° (SW) 1,996 ? -17.2°
Enters shadow 23:05:05 - 214° (SSW) 2,271 ? -17.2°
